TimeCDT,TemperatureF,Dew PointF,Humidity,Sea Level PressureIn,VisibilityMPH,Wind Direction,Wind SpeedMPH,Gust SpeedMPH,PrecipitationIn,Events,Conditions,WindDirDegrees,DateUTC
12:15 AM,41.0,37.4,87,29.97,10.0,ENE,4.6,-,N/A,,Clear,60,2012-10-16 05:15:00
12:35 AM,41.0,37.4,87,29.98,10.0,ENE,4.6,-,N/A,,Clear,60,2012-10-16 05:35:00
12:55 AM,39.2,37.4,93,29.98,10.0,ENE,3.5,-,N/A,,Clear,60,2012-10-16 05:55:00
1:15 AM,39.2,37.4,93,29.99,10.0,ENE,4.6,-,N/A,,Clear,60,2012-10-16 06:15:00
1:35 AM,39.2,37.4,93,29.98,10.0,ENE,4.6,-,N/A,,Clear,60,2012-10-16 06:35:00
1:55 AM,37.4,37.4,100,29.98,10.0,East,4.6,-,N/A,,Clear,80,2012-10-16 06:55:00
2:15 AM,39.2,37.4,93,29.98,10.0,East,3.5,-,N/A,,Clear,80,2012-10-16 07:15:00
2:35 AM,39.2,37.4,93,29.98,10.0,East,3.5,-,N/A,,Clear,90,2012-10-16 07:35:00
2:55 AM,39.2,37.4,93,29.97,10.0,East,4.6,-,N/A,,Clear,80,2012-10-16 07:55:00
3:15 AM,37.4,35.6,93,29.96,10.0,East,3.5,-,N/A,,Clear,100,2012-10-16 08:15:00
3:35 AM,37.4,35.6,93,29.96,10.0,East,3.5,-,N/A,,Clear,100,2012-10-16 08:35:00
3:55 AM,37.4,35.6,93,29.95,10.0,East,4.6,-,N/A,,Clear,90,2012-10-16 08:55:00
4:15 AM,37.4,35.6,93,29.95,10.0,East,3.5,-,N/A,,Clear,100,2012-10-16 09:15:00
4:35 AM,37.4,35.6,93,29.96,10.0,ESE,4.6,-,N/A,,Clear,120,2012-10-16 09:35:00
5:15 AM,37.4,35.6,93,29.96,10.0,SE,4.6,-,N/A,,Clear,140,2012-10-16 10:15:00
5:35 AM,39.2,37.4,93,29.95,10.0,ESE,4.6,-,N/A,,Clear,110,2012-10-16 10:35:00
5:55 AM,39.2,37.4,93,29.96,10.0,SE,4.6,-,N/A,,Clear,140,2012-10-16 10:55:00
6:15 AM,39.2,37.4,93,29.96,10.0,SE,3.5,-,N/A,,Clear,140,2012-10-16 11:15:00
6:35 AM,37.4,35.6,93,29.95,10.0,ESE,3.5,-,N/A,,Clear,120,2012-10-16 11:35:00
6:55 AM,37.4,35.6,93,29.94,10.0,ESE,4.6,-,N/A,,Clear,110,2012-10-16 11:55:00
7:15 AM,39.2,37.4,93,29.94,7.0,ESE,3.5,-,N/A,,Clear,120,2012-10-16 12:15:00
7:35 AM,39.2,37.4,93,29.94,7.0,ESE,3.5,-,N/A,,Clear,120,2012-10-16 12:35:00
7:55 AM,41.0,39.2,93,29.93,10.0,SE,3.5,-,N/A,,Clear,130,2012-10-16 12:55:00
8:35 AM,44.6,41.0,87,29.94,10.0,SE,5.8,-,N/A,,Clear,130,2012-10-16 13:35:00
8:55 AM,46.4,42.8,87,29.94,10.0,SE,4.6,-,N/A,,Clear,130,2012-10-16 13:55:00
9:15 AM,50.0,42.8,76,29.94,10.0,SE,6.9,-,N/A,,Clear,140,2012-10-16 14:15:00
9:35 AM,51.8,42.8,71,29.93,10.0,SE,8.1,-,N/A,,Clear,140,2012-10-16 14:35:00
9:55 AM,55.4,42.8,63,29.93,10.0,SSE,10.4,-,N/A,,Clear,160,2012-10-16 14:55:00
10:15 AM,57.2,42.8,59,29.92,10.0,SSE,12.7,-,N/A,,Clear,150,2012-10-16 15:15:00
10:35 AM,59.0,42.8,55,29.91,10.0,SSE,12.7,-,N/A,,Clear,150,2012-10-16 15:35:00
10:55 AM,59.0,42.8,55,29.90,10.0,SSE,15.0,19.6,N/A,,Clear,150,2012-10-16 15:55:00
11:15 AM,60.8,42.8,52,29.89,10.0,South,13.8,19.6,N/A,,Clear,170,2012-10-16 16:15:00
11:35 AM,60.8,42.8,52,29.89,10.0,SSE,12.7,18.4,N/A,,Clear,160,2012-10-16 16:35:00
11:55 AM,60.8,42.8,52,29.87,10.0,SSE,13.8,20.7,N/A,,Clear,150,2012-10-16 16:55:00
12:15 PM,62.6,41.0,45,29.86,10.0,SSE,13.8,20.7,N/A,,Clear,150,2012-10-16 17:15:00
12:35 PM,62.6,41.0,45,29.84,10.0,SSE,13.8,24.2,N/A,,Clear,150,2012-10-16 17:35:00
12:55 PM,64.4,41.0,42,29.83,10.0,SSE,13.8,23.0,N/A,,Clear,160,2012-10-16 17:55:00
1:15 PM,64.4,41.0,42,29.81,10.0,SE,18.4,24.2,N/A,,Clear,140,2012-10-16 18:15:00
1:35 PM,66.2,41.0,40,29.79,10.0,SSE,11.5,20.7,N/A,,Clear,150,2012-10-16 18:35:00
1:55 PM,68.0,41.0,37,29.78,10.0,SSE,16.1,23.0,N/A,,Clear,150,2012-10-16 18:55:00
2:15 PM,68.0,42.8,40,29.76,10.0,SE,18.4,23.0,N/A,,Clear,140,2012-10-16 19:15:00
2:35 PM,68.0,41.0,37,29.75,10.0,SSE,17.3,27.6,N/A,,Clear,150,2012-10-16 19:35:00
2:55 PM,68.0,41.0,37,29.73,10.0,SSE,17.3,26.5,N/A,,Clear,150,2012-10-16 19:55:00
3:15 PM,68.0,41.0,37,29.72,10.0,South,13.8,24.2,N/A,,Clear,170,2012-10-16 20:15:00
3:35 PM,68.0,41.0,37,29.71,10.0,SSE,17.3,24.2,N/A,,Clear,160,2012-10-16 20:35:00
3:55 PM,68.0,42.8,40,29.70,10.0,SSE,18.4,25.3,N/A,,Clear,160,2012-10-16 20:55:00
4:15 PM,68.0,42.8,40,29.69,10.0,SSE,15.0,24.2,N/A,,Clear,160,2012-10-16 21:15:00
4:55 PM,66.2,42.8,43,29.67,10.0,SSE,10.4,23.0,N/A,,Clear,150,2012-10-16 21:55:00
5:15 PM,66.2,42.8,43,29.67,10.0,SSE,10.4,-,N/A,,Clear,150,2012-10-16 22:15:00
5:35 PM,64.4,42.8,45,29.67,10.0,SSE,9.2,-,N/A,,Clear,150,2012-10-16 22:35:00
5:55 PM,64.4,44.6,49,29.66,10.0,SSE,6.9,-,N/A,,Clear,160,2012-10-16 22:55:00
6:15 PM,62.6,44.6,52,29.66,10.0,SSE,8.1,-,N/A,,Scattered Clouds,160,2012-10-16 23:15:00
6:35 PM,62.6,44.6,52,29.67,10.0,SSE,8.1,-,N/A,,Scattered Clouds,160,2012-10-16 23:35:00
6:55 PM,62.6,44.6,52,29.67,10.0,SSE,9.2,-,N/A,,Scattered Clouds,160,2012-10-16 23:55:00
7:15 PM,62.6,44.6,52,29.67,10.0,SSE,9.2,16.1,N/A,,Mostly Cloudy,160,2012-10-17 00:15:00
7:35 PM,62.6,44.6,52,29.66,10.0,SSE,10.4,17.3,N/A,,Overcast,160,2012-10-17 00:35:00
7:55 PM,62.6,46.4,55,29.66,10.0,SSE,10.4,-,N/A,,Mostly Cloudy,160,2012-10-17 00:55:00
8:15 PM,62.6,46.4,55,29.66,10.0,SSE,12.7,19.6,N/A,,Scattered Clouds,160,2012-10-17 01:15:00
8:35 PM,62.6,46.4,55,29.66,10.0,SSE,9.2,-,N/A,,Mostly Cloudy,160,2012-10-17 01:35:00
8:55 PM,62.6,46.4,55,29.66,10.0,SSE,10.4,18.4,N/A,,Mostly Cloudy,160,2012-10-17 01:55:00
9:15 PM,62.6,46.4,55,29.65,10.0,SSE,12.7,21.9,N/A,,Overcast,160,2012-10-17 02:15:00
9:35 PM,62.6,46.4,55,29.65,10.0,SSE,15.0,20.7,N/A,,Overcast,160,2012-10-17 02:35:00
9:55 PM,62.6,46.4,55,29.65,10.0,SSE,11.5,-,N/A,,Mostly Cloudy,150,2012-10-17 02:55:00
10:15 PM,62.6,46.4,55,29.65,10.0,SSE,10.4,16.1,N/A,,Scattered Clouds,160,2012-10-17 03:15:00
10:35 PM,62.6,46.4,55,29.65,10.0,SSE,11.5,-,N/A,,Clear,160,2012-10-17 03:35:00
10:55 PM,62.6,46.4,55,29.65,10.0,South,12.7,18.4,N/A,,Clear,170,2012-10-17 03:55:00
11:15 PM,62.6,48.2,59,29.65,10.0,South,11.5,-,N/A,,Clear,170,2012-10-17 04:15:00
11:35 PM,62.6,48.2,59,29.65,10.0,South,9.2,-,N/A,,Clear,170,2012-10-17 04:35:00
11:55 PM,62.6,48.2,59,29.64,10.0,South,10.4,-,N/A,,Clear,180,2012-10-17 04:55:00